Time,TemperatureF,DewpointF,PressureIn,WindDirection,WindDirectionDegrees,WindSpeedMPH,WindSpeedGustMPH,Humidity,HourlyPrecipIn,Conditions,Clouds,dailyrainin,SoftwareType,DateUTC
2013-02-24 00:01:00,55.0,-99.9,-100.00,ESE,113,3.0,-999.0,-999,-99.99,,,0.00,,2013-02-24 07:01:00,
2013-02-24 00:12:00,55.0,-99.9,-100.00,ESE,113,3.0,-999.0,-999,-99.99,,,0.00,,2013-02-24 07:12:00,
2013-02-24 00:22:00,55.0,-99.9,-100.00,ESE,113,5.0,-999.0,-999,-99.99,,,0.00,,2013-02-24 07:22:00,
2013-02-24 00:32:00,55.0,-99.9,-100.00,ESE,113,7.0,-999.0,-999,-99.99,,,0.00,,2013-02-24 07:32:00,
2013-02-24 00:42:00,55.0,-99.9,-100.00,ESE,113,7.0,-999.0,-999,-99.99,,,0.00,,2013-02-24 07:42:00,
2013-02-24 00:52:00,56.0,-99.9,-100.00,ESE,113,3.0,-999.0,-999,-99.99,,,0.00,,2013-02-24 07:52:00,
2013-02-24 01:01:00,55.0,-99.9,-100.00,ESE,113,6.0,-999.0,-999,-99.99,,,0.00,,2013-02-24 08:01:00,
2013-02-24 01:11:00,55.0,-99.9,-100.00,ESE,113,6.0,-999.0,-999,-99.99,,,0.00,,2013-02-24 08:11:00,
2013-02-24 01:22:00,55.0,-99.9,-100.00,ESE,113,6.0,-999.0,-999,-99.99,,,0.00,,2013-02-24 08:22:00,
2013-02-24 01:32:00,55.0,-99.9,-100.00,ESE,113,10.0,-999.0,-999,-99.99,,,0.00,,2013-02-24 08:32:00,
2013-02-24 01:42:00,55.0,-99.9,-100.00,ESE,113,10.0,-999.0,-999,-99.99,,,0.00,,2013-02-24 08:42:00,
2013-02-24 01:54:00,55.0,-99.9,-100.00,ESE,113,9.0,-999.0,-999,-99.99,,,0.00,,2013-02-24 08:54:00,
2013-02-24 02:02:00,55.0,-99.9,-100.00,ESE,113,4.0,-999.0,-999,-99.99,,,0.00,,2013-02-24 09:02:00,
2013-02-24 02:11:00,55.0,-99.9,-100.00,ESE,113,4.0,-999.0,-999,-99.99,,,0.00,,2013-02-24 09:11:00,
2013-02-24 02:22:00,56.0,-99.9,-100.00,ESE,113,10.0,-999.0,-999,-99.99,,,0.00,,2013-02-24 09:22:00,
2013-02-24 02:32:00,56.0,-99.9,-100.00,ESE,113,13.0,-999.0,-999,-99.99,,,0.00,,2013-02-24 09:32:00,
2013-02-24 02:42:00,56.0,-99.9,-100.00,ESE,113,13.0,-999.0,-999,-99.99,,,0.00,,2013-02-24 09:42:00,
2013-02-24 02:52:00,55.0,-99.9,-100.00,ESE,113,6.0,-999.0,-999,-99.99,,,0.00,,2013-02-24 09:52:00,
2013-02-24 03:01:00,55.0,-99.9,-100.00,ESE,113,12.0,-999.0,-999,-99.99,,,0.00,,2013-02-24 10:01:00,
2013-02-24 03:11:00,55.0,-99.9,-100.00,ESE,113,8.0,-999.0,-999,-99.99,,,0.00,,2013-02-24 10:11:00,
2013-02-24 03:22:00,55.0,-99.9,-100.00,ESE,113,8.0,-999.0,-999,-99.99,,,0.00,,2013-02-24 10:22:00,
2013-02-24 03:32:00,54.0,-99.9,-100.00,ESE,113,7.0,-999.0,-999,-99.99,,,0.00,,2013-02-24 10:32:00,
2013-02-24 03:42:00,54.0,-99.9,-100.00,ESE,113,7.0,-999.0,-999,-99.99,,,0.00,,2013-02-24 10:42:00,
2013-02-24 03:52:00,53.0,-99.9,-100.00,ESE,113,6.0,-999.0,-999,-99.99,,,0.00,,2013-02-24 10:52:00,
2013-02-24 04:01:00,53.0,-99.9,-100.00,ESE,113,11.0,-999.0,-999,-99.99,,,0.00,,2013-02-24 11:01:00,
2013-02-24 04:11:00,53.0,-99.9,-100.00,ESE,113,11.0,-999.0,-999,-99.99,,,0.00,,2013-02-24 11:11:00,
2013-02-24 04:22:00,52.0,-99.9,-100.00,ESE,113,4.0,-999.0,-999,-99.99,,,0.00,,2013-02-24 11:22:00,
2013-02-24 04:32:00,52.0,-99.9,-100.00,ESE,113,5.0,-999.0,-999,-99.99,,,0.00,,2013-02-24 11:32:00,
2013-02-24 04:42:00,52.0,-99.9,-100.00,ESE,113,5.0,-999.0,-999,-99.99,,,0.00,,2013-02-24 11:42:00,
2013-02-24 04:53:00,51.0,-99.9,-100.00,ESE,113,3.0,-999.0,-999,-99.99,,,0.00,,2013-02-24 11:53:00,
2013-02-24 05:02:00,51.0,-99.9,-100.00,ESE,113,5.0,-999.0,-999,-99.99,,,0.00,,2013-02-24 12:02:00,
2013-02-24 05:11:00,51.0,-99.9,-100.00,ESE,113,5.0,-999.0,-999,-99.99,,,0.00,,2013-02-24 12:11:00,
2013-02-24 05:22:00,50.0,-99.9,-100.00,ESE,113,0.0,-999.0,-999,-99.99,,,0.00,,2013-02-24 12:22:00,
2013-02-24 05:33:00,49.0,-99.9,-100.00,ESE,113,0.0,-999.0,-999,-99.99,,,0.00,,2013-02-24 12:33:00,
2013-02-24 05:46:00,49.0,-99.9,-100.00,ESE,113,0.0,-999.0,-999,-99.99,,,0.00,,2013-02-24 12:46:00,
2013-02-24 06:02:00,48.0,-99.9,-100.00,ESE,113,0.0,-999.0,-999,-99.99,,,0.00,,2013-02-24 13:02:00,
2013-02-24 06:16:00,48.0,-99.9,-100.00,ESE,113,0.0,-999.0,-999,-99.99,,,0.00,,2013-02-24 13:16:00,
2013-02-24 06:27:00,46.0,-99.9,-100.00,ESE,113,0.0,-999.0,-999,-99.99,,,0.00,,2013-02-24 13:27:00,
2013-02-24 06:36:00,45.0,-99.9,-100.00,ESE,113,0.0,-999.0,-999,-99.99,,,0.00,,2013-02-24 13:36:00,
2013-02-24 06:46:00,45.0,-99.9,-100.00,ESE,113,0.0,-999.0,-999,-99.99,,,0.00,,2013-02-24 13:46:00,
2013-02-24 06:56:00,45.0,-99.9,-100.00,ESE,113,0.0,-999.0,-999,-99.99,,,0.00,,2013-02-24 13:56:00,
2013-02-24 07:05:00,44.0,-99.9,-100.00,ESE,113,0.0,-999.0,-999,-99.99,,,0.00,,2013-02-24 14:05:00,
2013-02-24 07:15:00,43.0,-99.9,-100.00,ESE,113,0.0,-999.0,-999,-99.99,,,0.00,,2013-02-24 14:15:00,
2013-02-24 07:35:00,42.0,-99.9,-100.00,ESE,113,0.0,-999.0,-999,-99.99,,,0.00,,2013-02-24 14:35:00,
2013-02-24 07:46:00,42.0,-99.9,-100.00,ESE,113,0.0,-999.0,-999,-99.99,,,0.00,,2013-02-24 14:46:00,
2013-02-24 07:55:00,43.0,-99.9,-100.00,ESE,113,0.0,-999.0,-999,-99.99,,,0.00,,2013-02-24 14:55:00,
2013-02-24 08:04:00,43.0,-99.9,-100.00,ESE,113,0.0,-999.0,-999,-99.99,,,0.00,,2013-02-24 15:04:00,
2013-02-24 08:15:00,45.0,-99.9,-100.00,ESE,113,0.0,-999.0,-999,-99.99,,,0.00,,2013-02-24 15:15:00,
2013-02-24 08:24:00,45.0,-99.9,-100.00,ESE,113,0.0,-999.0,-999,-99.99,,,0.00,,2013-02-24 15:24:00,
2013-02-24 08:32:00,46.0,-99.9,-100.00,ESE,113,0.0,-999.0,-999,-99.99,,,0.00,,2013-02-24 15:32:00,
2013-02-24 08:43:00,46.0,-99.9,-100.00,ESE,113,0.0,-999.0,-999,-99.99,,,0.00,,2013-02-24 15:43:00,
2013-02-24 08:53:00,47.0,-99.9,-100.00,ESE,113,0.0,-999.0,-999,-99.99,,,0.00,,2013-02-24 15:53:00,
2013-02-24 09:02:00,51.0,-99.9,-100.00,ESE,113,7.0,-999.0,-999,-99.99,,,0.00,,2013-02-24 16:02:00,
2013-02-24 09:12:00,54.0,-99.9,-100.00,ESE,113,11.0,-999.0,-999,-99.99,,,0.00,,2013-02-24 16:12:00,
2013-02-24 09:22:00,54.0,-99.9,-100.00,ESE,113,11.0,-999.0,-999,-99.99,,,0.00,,2013-02-24 16:22:00,
2013-02-24 09:32:00,54.0,-99.9,-100.00,ESE,113,10.0,-999.0,-999,-99.99,,,0.00,,2013-02-24 16:32:00,
2013-02-24 09:42:00,54.0,-99.9,-100.00,ESE,113,10.0,-999.0,-999,-99.99,,,0.00,,2013-02-24 16:42:00,
2013-02-24 09:52:00,55.0,-99.9,-100.00,ESE,113,17.0,-999.0,-999,-99.99,,,0.00,,2013-02-24 16:52:00,
2013-02-24 10:01:00,55.0,-99.9,-100.00,ESE,113,4.0,-999.0,-999,-99.99,,,0.00,,2013-02-24 17:01:00,
2013-02-24 10:11:00,55.0,-99.9,-100.00,ESE,113,4.0,-999.0,-999,-99.99,,,0.00,,2013-02-24 17:11:00,
2013-02-24 10:22:00,56.0,-99.9,-100.00,ESE,113,10.0,-999.0,-999,-99.99,,,0.00,,2013-02-24 17:22:00,
2013-02-24 10:32:00,57.0,-99.9,-100.00,ESE,113,13.0,-999.0,-999,-99.99,,,0.00,,2013-02-24 17:32:00,
2013-02-24 10:42:00,57.0,-99.9,-100.00,ESE,113,13.0,-999.0,-999,-99.99,,,0.00,,2013-02-24 17:42:00,
2013-02-24 10:53:00,57.0,-99.9,-100.00,ESE,113,7.0,-999.0,-999,-99.99,,,0.00,,2013-02-24 17:53:00,
2013-02-24 11:02:00,60.0,-99.9,-100.00,ESE,113,11.0,-999.0,-999,-99.99,,,0.00,,2013-02-24 18:02:00,
2013-02-24 11:12:00,60.0,-99.9,-100.00,ESE,113,11.0,-999.0,-999,-99.99,,,0.00,,2013-02-24 18:12:00,
2013-02-24 11:22:00,59.0,-99.9,-100.00,ESE,113,5.0,-999.0,-999,-99.99,,,0.00,,2013-02-24 18:22:00,
2013-02-24 11:32:00,60.0,-99.9,-100.00,ESE,113,0.0,-999.0,-999,-99.99,,,0.00,,2013-02-24 18:32:00,
2013-02-24 11:42:00,60.0,-99.9,-100.00,ESE,113,0.0,-999.0,-999,-99.99,,,0.00,,2013-02-24 18:42:00,
2013-02-24 11:52:00,60.0,-99.9,-100.00,ESE,113,7.0,-999.0,-999,-99.99,,,0.00,,2013-02-24 18:52:00,
2013-02-24 12:02:00,62.0,-99.9,-100.00,ESE,113,14.0,-999.0,-999,-99.99,,,0.00,,2013-02-24 19:02:00,
2013-02-24 12:12:00,62.0,-99.9,-100.00,ESE,113,14.0,-999.0,-999,-99.99,,,0.00,,2013-02-24 19:12:00,
2013-02-24 12:22:00,63.0,-99.9,-100.00,ESE,113,10.0,-999.0,-999,-99.99,,,0.00,,2013-02-24 19:22:00,
2013-02-24 12:32:00,64.0,-99.9,-100.00,ESE,113,10.0,-999.0,-999,-99.99,,,0.00,,2013-02-24 19:32:00,
2013-02-24 12:42:00,64.0,-99.9,-100.00,ESE,113,10.0,-999.0,-999,-99.99,,,0.00,,2013-02-24 19:42:00,
2013-02-24 12:52:00,62.0,-99.9,-100.00,ESE,113,9.0,-999.0,-999,-99.99,,,0.00,,2013-02-24 19:52:00,
2013-02-24 13:02:00,63.0,-99.9,-100.00,ESE,113,6.0,-999.0,-999,-99.99,,,0.00,,2013-02-24 20:02:00,
2013-02-24 13:11:00,63.0,-99.9,-100.00,ESE,113,6.0,-999.0,-999,-99.99,,,0.00,,2013-02-24 20:11:00,
2013-02-24 13:22:00,63.0,-99.9,-100.00,ESE,113,13.0,-999.0,-999,-99.99,,,0.00,,2013-02-24 20:22:00,
2013-02-24 13:32:00,63.0,-99.9,-100.00,ESE,113,16.0,-999.0,-999,-99.99,,,0.00,,2013-02-24 20:32:00,
2013-02-24 13:42:00,62.0,-99.9,-100.00,ESE,113,15.0,-999.0,-999,-99.99,,,0.00,,2013-02-24 20:42:00,
2013-02-24 13:52:00,62.0,-99.9,-100.00,ESE,113,15.0,-999.0,-999,-99.99,,,0.00,,2013-02-24 20:52:00,
2013-02-24 14:02:00,61.0,-99.9,-100.00,ESE,113,16.0,-999.0,-999,-99.99,,,0.00,,2013-02-24 21:02:00,
2013-02-24 14:11:00,61.0,-99.9,-100.00,ESE,113,16.0,-999.0,-999,-99.99,,,0.00,,2013-02-24 21:11:00,
2013-02-24 14:22:00,59.0,-99.9,-100.00,ESE,113,9.0,-999.0,-999,-99.99,,,0.00,,2013-02-24 21:22:00,
2013-02-24 14:32:00,59.0,-99.9,-100.00,ESE,113,4.0,-999.0,-999,-99.99,,,0.00,,2013-02-24 21:32:00,
2013-02-24 14:42:00,59.0,-99.9,-100.00,ESE,113,4.0,-999.0,-999,-99.99,,,0.00,,2013-02-24 21:42:00,
2013-02-24 14:52:00,57.0,-99.9,-100.00,ESE,113,10.0,-999.0,-999,-99.99,,,0.00,,2013-02-24 21:52:00,
2013-02-24 15:01:00,56.0,-99.9,-100.00,ESE,113,6.0,-999.0,-999,-99.99,,,0.00,,2013-02-24 22:01:00,
2013-02-24 15:11:00,56.0,-99.9,-100.00,ESE,113,6.0,-999.0,-999,-99.99,,,0.00,,2013-02-24 22:11:00,
2013-02-24 15:22:00,56.0,-99.9,-100.00,ESE,113,4.0,-999.0,-999,-99.99,,,0.00,,2013-02-24 22:22:00,
2013-02-24 15:32:00,54.0,-99.9,-100.00,ESE,113,15.0,-999.0,-999,-99.99,,,0.00,,2013-02-24 22:32:00,
2013-02-24 15:42:00,54.0,-99.9,-100.00,ESE,113,15.0,-999.0,-999,-99.99,,,0.00,,2013-02-24 22:42:00,
2013-02-24 15:52:00,51.0,-99.9,-100.00,ESE,113,27.0,-999.0,-999,-99.99,,,0.00,,2013-02-24 22:52:00,
2013-02-24 16:02:00,49.0,-99.9,-100.00,ESE,113,10.0,-999.0,-999,-99.99,,,0.00,,2013-02-24 23:02:00,
2013-02-24 16:11:00,49.0,-99.9,-100.00,ESE,113,10.0,-999.0,-999,-99.99,,,0.00,,2013-02-24 23:11:00,
2013-02-24 16:22:00,49.0,-99.9,-100.00,ESE,113,12.0,-999.0,-999,-99.99,,,0.00,,2013-02-24 23:22:00,
2013-02-24 16:32:00,48.0,-99.9,-100.00,ESE,113,6.0,-999.0,-999,-99.99,,,0.00,,2013-02-24 23:32:00,
2013-02-24 16:42:00,48.0,-99.9,-100.00,ESE,113,6.0,-999.0,-999,-99.99,,,0.00,,2013-02-24 23:42:00,
2013-02-24 16:52:00,47.0,-99.9,-100.00,ESE,113,10.0,-999.0,-999,-99.99,,,0.00,,2013-02-24 23:52:00,
2013-02-24 17:02:00,47.0,-99.9,-100.00,ESE,113,11.0,-999.0,-999,-99.99,,,0.00,,2013-02-25 00:02:00,
2013-02-24 17:11:00,47.0,-99.9,-100.00,ESE,113,11.0,-999.0,-999,-99.99,,,0.00,,2013-02-25 00:11:00,
2013-02-24 17:22:00,46.0,-99.9,-100.00,ESE,113,14.0,-999.0,-999,-99.99,,,0.00,,2013-02-25 00:22:00,
2013-02-24 17:32:00,46.0,-99.9,-100.00,ESE,113,9.0,-999.0,-999,-99.99,,,0.00,,2013-02-25 00:32:00,
2013-02-24 17:42:00,46.0,-99.9,-100.00,ESE,113,9.0,-999.0,-999,-99.99,,,0.00,,2013-02-25 00:42:00,
2013-02-24 17:52:00,45.0,-99.9,-100.00,ESE,113,11.0,-999.0,-999,-99.99,,,0.00,,2013-02-25 00:52:00,
2013-02-24 18:02:00,45.0,-99.9,-100.00,ESE,113,10.0,-999.0,-999,-99.99,,,0.00,,2013-02-25 01:02:00,
2013-02-24 18:11:00,44.0,-99.9,-100.00,ESE,113,13.0,-999.0,-999,-99.99,,,0.00,,2013-02-25 01:11:00,
2013-02-24 18:22:00,44.0,-99.9,-100.00,ESE,113,13.0,-999.0,-999,-99.99,,,0.00,,2013-02-25 01:22:00,
2013-02-24 18:32:00,44.0,-99.9,-100.00,ESE,113,6.0,-999.0,-999,-99.99,,,0.00,,2013-02-25 01:32:00,
2013-02-24 18:42:00,44.0,-99.9,-100.00,ESE,113,6.0,-999.0,-999,-99.99,,,0.00,,2013-02-25 01:42:00,
2013-02-24 18:52:00,44.0,-99.9,-100.00,ESE,113,7.0,-999.0,-999,-99.99,,,0.00,,2013-02-25 01:52:00,
2013-02-24 19:01:00,43.0,-99.9,-100.00,ESE,113,9.0,-999.0,-999,-99.99,,,0.00,,2013-02-25 02:01:00,
2013-02-24 19:11:00,42.0,-99.9,-100.00,ESE,113,7.0,-999.0,-999,-99.99,,,0.00,,2013-02-25 02:11:00,
2013-02-24 19:22:00,42.0,-99.9,-100.00,ESE,113,7.0,-999.0,-999,-99.99,,,0.00,,2013-02-25 02:22:00,
2013-02-24 19:32:00,41.0,-99.9,-100.00,ESE,113,12.0,-999.0,-999,-99.99,,,0.00,,2013-02-25 02:32:00,
2013-02-24 19:42:00,41.0,-99.9,-100.00,ESE,113,12.0,-999.0,-999,-99.99,,,0.00,,2013-02-25 02:42:00,
2013-02-24 19:52:00,40.0,-99.9,-100.00,ESE,113,9.0,-999.0,-999,-99.99,,,0.00,,2013-02-25 02:52:00,
2013-02-24 20:02:00,39.0,-99.9,-100.00,ESE,113,5.0,-999.0,-999,-99.99,,,0.00,,2013-02-25 03:02:00,
2013-02-24 20:11:00,39.0,-99.9,-100.00,ESE,113,5.0,-999.0,-999,-99.99,,,0.00,,2013-02-25 03:11:00,
2013-02-24 20:21:00,39.0,-99.9,-100.00,ESE,113,10.0,-999.0,-999,-99.99,,,0.00,,2013-02-25 03:21:00,
2013-02-24 20:32:00,39.0,-99.9,-100.00,ESE,113,12.0,-999.0,-999,-99.99,,,0.00,,2013-02-25 03:32:00,
2013-02-24 20:42:00,39.0,-99.9,-100.00,ESE,113,12.0,-999.0,-999,-99.99,,,0.00,,2013-02-25 03:42:00,
2013-02-24 20:52:00,38.0,-99.9,-100.00,ESE,113,6.0,-999.0,-999,-99.99,,,0.00,,2013-02-25 03:52:00,
2013-02-24 21:02:00,37.0,-99.9,-100.00,ESE,113,11.0,-999.0,-999,-99.99,,,0.00,,2013-02-25 04:02:00,
2013-02-24 21:11:00,37.0,-99.9,-100.00,ESE,113,11.0,-999.0,-999,-99.99,,,0.00,,2013-02-25 04:11:00,
2013-02-24 21:22:00,37.0,-99.9,-100.00,ESE,113,17.0,-999.0,-999,-99.99,,,0.00,,2013-02-25 04:22:00,
2013-02-24 21:32:00,37.0,-99.9,-100.00,ESE,113,9.0,-999.0,-999,-99.99,,,0.00,,2013-02-25 04:32:00,
2013-02-24 21:42:00,37.0,-99.9,-100.00,ESE,113,9.0,-999.0,-999,-99.99,,,0.00,,2013-02-25 04:42:00,
2013-02-24 21:52:00,37.0,-99.9,-100.00,ESE,113,23.0,-999.0,-999,-99.99,,,0.00,,2013-02-25 04:52:00,
2013-02-24 22:01:00,37.0,-99.9,-100.00,ESE,113,11.0,-999.0,-999,-99.99,,,0.00,,2013-02-25 05:01:00,
2013-02-24 22:11:00,37.0,-99.9,-100.00,ESE,113,11.0,-999.0,-999,-99.99,,,0.00,,2013-02-25 05:11:00,
2013-02-24 22:22:00,37.0,-99.9,-100.00,ESE,113,13.0,-999.0,-999,-99.99,,,0.00,,2013-02-25 05:22:00,
2013-02-24 22:32:00,37.0,-99.9,-100.00,ESE,113,23.0,-999.0,-999,-99.99,,,0.00,,2013-02-25 05:32:00,
2013-02-24 22:42:00,37.0,-99.9,-100.00,ESE,113,23.0,-999.0,-999,-99.99,,,0.00,,2013-02-25 05:42:00,
2013-02-24 22:52:00,36.0,-99.9,-100.00,ESE,113,2.0,-999.0,-999,-99.99,,,0.00,,2013-02-25 05:52:00,
2013-02-24 23:03:00,36.0,-99.9,-100.00,ESE,113,6.0,-999.0,-999,-99.99,,,0.00,,2013-02-25 06:03:00,
2013-02-24 23:12:00,36.0,-99.9,-100.00,ESE,113,6.0,-999.0,-999,-99.99,,,0.00,,2013-02-25 06:12:00,
2013-02-24 23:22:00,36.0,-99.9,-100.00,ESE,113,6.0,-999.0,-999,-99.99,,,0.00,,2013-02-25 06:22:00,
2013-02-24 23:32:00,36.0,-99.9,-100.00,ESE,113,5.0,-999.0,-999,-99.99,,,0.00,,2013-02-25 06:32:00,
2013-02-24 23:42:00,36.0,-99.9,-100.00,ESE,113,5.0,-999.0,-999,-99.99,,,0.00,,2013-02-25 06:42:00,
2013-02-24 23:52:00,36.0,-99.9,-100.00,ESE,113,5.0,-999.0,-999,-99.99,,,0.00,,2013-02-25 06:52:00,